Hourly Data Report for October 05, 2017

All times are specified in Local Standard Time (LST). Add 1 hour to adjust for Daylight Saving Time where and when it is observed.

ARVIAT A
NUNAVUT

61°05'38.000" N
94°04'18.000" W
10.40 m
2300427
71174
YEK

Download Data

Hourly Data (October 2017)
Hourly Data Report for October 5, 2017
Temp Definition
°C
Dew Point Temp Definition
°C
Rel Hum Definition
%
Wind Dir Definition
10's deg

Wind Spd Definition
km/h
Visibility Definition
km
Stn Press Definition
kPa
Hmdx Definition


Wind Chill Definition


Weather Definition


TIME
00:00 Legend Double Dagger -1.9 -6.0 73 30 48 16.1 100.37   -11 LegendNANA
01:00 Legend Double Dagger -1.9 -6.1 73 30 48 16.1 100.32   -11 LegendNANA
02:00 Legend Double Dagger -2.2 -5.6 78 31 45 16.1 100.29   -11 LegendNANA
03:00 Legend Double Dagger -2.8 -5.5 82 31 46 16.1 100.24   -12 LegendNANA
04:00 Legend Double Dagger -2.7 -5.0 84 31 41 16.1 100.20   -11 Snow
05:00 Legend Double Dagger -3.3 -5.3 86 31 41 16.1 100.20   -12 Snow
06:00 Legend Double Dagger -3.1 -6.3 79 32 43 16.1 100.18   -12 Snow
07:00 Legend Double Dagger -3.9 -6.0 85 32 45 9.7 100.12   -13 Snow
08:00 Legend Double Dagger -3.8 -6.5 81 31 43 16.1 100.09   -13 LegendNANA
09:00 Legend Double Dagger -4.0 -6.8 81 32 41 6.4 100.09   -13 Snow
10:00 Legend Double Dagger -3.8 -7.1 78 32 46 16.1 100.06   -13 LegendNANA
11:00 Legend Double Dagger -3.2 -7.9 70 31 48 16.1 100.04   -12 LegendNANA
12:00 Legend Double Dagger -2.9 -6.9 74 32 50 16.1 100.04   -12 Snow
13:00 Legend Double Dagger -2.6 -6.7 74 31 50 16.1 99.99   -12 Snow
14:00 Legend Double Dagger -2.3 -6.4 74 31 50 16.1 99.99   -11 Snow
15:00 Legend Double Dagger -1.8 -6.4 71 32 50 16.1 100.03   -11 LegendNANA
16:00 Legend Double Dagger -1.7 -5.7 74 31 48 16.1 100.02   -10 LegendNANA
17:00 Legend Double Dagger -1.9 -6.4 72 32 50 16.1 100.04   -11 LegendNANA
18:00 Legend Double Dagger -2.3 -6.0 76 32 41 16.1 100.07   -11 LegendNANA
19:00 Legend Double Dagger -2.2 -5.9 76 32 35 16.1 100.08   -10 Snow
20:00 Legend Double Dagger -2.4 -5.7 78 32 37 16.1 100.08   -10 Snow
21:00 Legend Double Dagger -2.5 -5.3 81 31 34 16.1 100.06   -10 Snow
22:00 Legend Double Dagger -2.6 -5.0 84 31 32 16.1 99.99   -10 Snow
23:00 Legend Double Dagger -2.8 -5.3 83 31 32 16.1 99.98   -10 Snow

Notes on Data Quality.

Legend

  • E = Estimated
  • M = Missing
  • NA = Not Available
  • ‡ = Partner data that is not subject to review by the National Climate Archives
Date modified: